Etusivu
METAR-TAF:

METAR-TAF

Lentoasemat :

Stevens Point Municipal Airport

Stevens Point, Wisconsin, Yhdysvallat

Leveyspiiri: 44-32-42N, Pituuspiiri: 089-31-49W, korkeus merenpinnasta: 338 m

Tämänhetkinen sää

Tämä raportti tehtiin 23 minuuttia sitten, kello 11.55 UTC
Tuuli 9 kn etelästä
Lämpötila -11°C
Kosteus 61%
Ilmanpaine 1017 hPa
Näkyvyys: 16.1 km
Hajonneita pilviä 12000 ft:n korkeudessa

METAR: KSTE 131155Z AUTO 18009KT 10SM BKN120 M11/M17 A3004 RMK AO2 T11081170 11108 21120

Aika: 06:18 (12:18 UTC)


TAF: puuttuu

Säähavainnot ja -ennusteet yli 4000 lentoasemalta (METAR- ja TAF-raportit).

Käytössä olevat sääasemat on merkitty karttaan keltaisilla ja punaisilla pisteillä.

Aseta hiiri pisteen päälle nähdäksesi sääaseman nimen.

Klikkaa sitten nähdäksesi säähavainnot ja -ennusteet.

Kartan vaihtaminen: klikkaa mustalla rastilla varustettuja vihreitä pisteitä, niin voit zoomata sisään; viivalla varustettua vihreää pistettä, niin voit zoomata ulos tai vihreitä nuolia, niin pääset viereisille kartoille.


METAR-TAF: